• Join FlightAware (Why Join?)
  • Login
  • US Flag GB Flag 
19:59 EDT


 

Airport Tracker/Info


-or-


 

Live Flight TrackerFlight Track Log ✈ JUS327 ✈ 18-Apr-2013 ✈ KPHX - KLAX

Flight Track Log - Related Links

Times and Time Zones

All times are in EDT time to prevent confusion due to time zone crossing. See the JUS327 flight status page for this flight to view local times or setup timezone preferences in your user account.

Time Position Orientation Groundspeed Altitude Reporting Facility
EDT Latitude Longitude Course Direction KTS MPH feet Rate Location/Type
22:32 33.4192 -112.0656 251° West 181 208 2,900  Level Albuquerque Center
22:33 33.4003 -112.1342 252° West 224 258 4,600 1,680 Climbing Albuquerque Center
22:34 33.4061 -112.2217 275° West 263 303 6,400 2,220 Climbing Albuquerque Center
22:35 33.4153 -112.3144 277° West 279 321 9,200 2,040 Climbing Albuquerque Center
22:37 33.4219 -112.4122 275° West 296 341 10,700 1,980 Climbing Albuquerque Center
22:38 33.4319 -112.5203 276° West 324 373 13,300 2,220 Climbing Albuquerque Center
22:39 33.4394 -112.6292 275° West 323 372 15,300 1,860 Climbing Albuquerque Center
22:40 33.4486 -112.7383 276° West 328 377 17,200 1,920 Climbing Albuquerque Center
22:41 33.4622 -112.8747 277° West 338 389 19,300 1,800 Climbing Albuquerque Center
22:42 33.5033 -112.9794 295° West 348 400 20,900 1,560 Climbing Albuquerque Center
22:43 33.5497 -113.0808 299° West 348 400 22,500 1,560 Climbing Albuquerque Center
22:44 33.5856 -113.1908 291° West 350 403 24,100 1,440 Climbing Albuquerque Center
22:45 33.6267 -113.3019 294° West 359 413 25,500 1,260 Climbing Albuquerque Center
22:46 33.6656 -113.4172 292° West 367 422 26,800 1,200 Climbing Albuquerque Center
22:47 33.7081 -113.5319 294° West 373 429 28,000 1,140 Climbing Albuquerque Center
22:48 33.7464 -113.6497 291° West 377 434 29,200 1,020 Climbing Albuquerque Center
22:49 33.7869 -113.7664 293° West 380 437 30,100 1,080 Climbing Albuquerque Center
22:50 33.8378 -113.9094 293° West 386 444 31,400 900 Climbing Albuquerque Center
22:51 33.8806 -114.0258 294° West 382 440 32,000 240 Climbing Albuquerque Center
22:52 33.8972 -114.1564 279° West 393 452 32,000 -60 Level Albuquerque Center
22:53 33.9108 -114.2850 277° West 398 458 31,900 -60 Descending Albuquerque Center
22:54 33.9344 -114.4153 282° West 400 460 31,900  Level Albuquerque Center
22:54 33.9403 -114.4539 280° West 401 461 31,900 60 Level Los Angeles Center
22:55 33.9556 -114.5858 278° West 400 460 32,000  Climbing Los Angeles Center
22:56 33.9786 -114.7439 280° West 401 461 31,900 -60 Descending Los Angeles Center
22:57 33.9950 -114.8764 279° West 401 461 31,900  Level Los Angeles Center
22:58 34.0131 -115.0086 279° West 400 460 31,900  Level Los Angeles Center
22:59 34.0314 -115.1392 280° West 398 458 32,000  Climbing Los Angeles Center
23:00 34.0492 -115.2719 279° West 402 463 32,000 -60 Level Los Angeles Center
23:01 34.0675 -115.4036 280° West 400 460 31,900 -60 Descending Los Angeles Center
23:02 34.0883 -115.5606 279° West 397 457 31,900  Level Los Angeles Center
23:03 34.1033 -115.6928 278° West 399 459 31,900  Level Los Angeles Center
23:04 34.1189 -115.8242 278° West 397 457 31,900 -180 Level Los Angeles Center
23:06 34.0817 -115.9522 251° West 408 470 31,600 -780 Descending Los Angeles Center
23:07 34.0483 -116.0911 254° West 429 494 30,300 -1,260 Descending Los Angeles Center
23:08 34.0350 -116.2386 264° West 440 506 29,100 -1,560 Descending Los Angeles Center
23:09 34.0200 -116.3828 263° West 437 503 27,200 -2,040 Descending Los Angeles Center
23:10 33.9975 -116.5456 261° West 416 479 24,900 -2,040 Descending Los Angeles Center
23:11 33.9883 -116.6750 265° West 395 455 23,000 -1,980 Descending Los Angeles Center
23:12 33.9783 -116.8058 265° West 394 453 20,900 -2,340 Descending Los Angeles Center
23:13 33.9667 -116.9167 263° West 358 412 18,700 -2,040 Descending Southern California TRACON
23:13 33.9667 -117.0167 270° West 325 374 17,400 -1,020 Descending Southern California TRACON
23:14 33.9500 -117.1333 260° West 339 390 16,800 -960 Descending Southern California TRACON
23:16 33.9333 -117.2500 260° West 310 357 15,400 -1,440 Descending Southern California TRACON
23:17 33.9500 -117.3500 281° West 304 350 13,800 -1,680 Descending Southern California TRACON
23:17 33.9333 -117.4500 259° West 317 365 12,300 -1,380 Descending Southern California TRACON
23:19 33.9667 -117.5500 292° West 293 337 11,100 -1,080 Descending Southern California TRACON
23:20 33.9833 -117.6333 284° West 305 351 10,100 -1,020 Descending Southern California TRACON
23:21 34.0000 -117.7333 281° West 291 335 9,100 -840 Descending Southern California TRACON
23:21 34.0000 -117.8333 270° West 296 341 8,600 -720 Descending Southern California TRACON
23:22 33.9833 -117.9167 256° West 263 303 7,800 -1,200 Descending Southern California TRACON
23:23 33.9667 -118.0000 256° West 250 288 6,300 -1,440 Descending Southern California TRACON
23:24 33.9667 -118.0833 270° West 213 245 5,000 -1,200 Descending Southern California TRACON
23:25 33.9636 -118.1275 265° West 202 232 4,200 -1,020 Descending Los Angeles Center
23:26 33.9572 -118.1878 263° West 186 214 3,200 -960 Descending Los Angeles Center
23:27 33.9517 -118.2458 263° West 180 207 2,300 -900 Descending Los Angeles Center
23:28 33.9458 -118.3014 263° West 174 200 1,400 -840 Descending Los Angeles Center
23:29 33.9417 -118.3503 264° West 161 185 600 -660 Descending Los Angeles Center
23:30 33.9372 -118.3958 263° West 144 166 100 -540 Descending Los Angeles Center
23:32 33.9333 -118.4000 270° West  Level FlightAware Approximate